Time,TemperatureF,DewpointF,PressureIn,WindDirection,WindDirectionDegrees,WindSpeedMPH,WindSpeedGustMPH,Humidity,HourlyPrecipIn,Conditions,Clouds,dailyrainin,SoftwareType,DateUTC
2013-02-08 00:02:00,41.0,38.0,29.81,WNW,283,2.0,10.0,90,0.03,,,0.13,,2013-02-08 05:02:00,
2013-02-08 00:11:00,41.0,38.0,29.81,WNW,283,2.0,10.0,90,0.03,,,0.13,,2013-02-08 05:11:00,
2013-02-08 00:22:00,40.0,38.0,29.82,West,281,1.0,8.0,91,0.02,,,0.13,,2013-02-08 05:22:00,
2013-02-08 00:32:00,40.0,38.0,29.82,West,265,3.0,7.0,91,0.02,,,0.14,,2013-02-08 05:32:00,
2013-02-08 00:42:00,40.0,38.0,29.82,West,265,3.0,7.0,91,0.02,,,0.14,,2013-02-08 05:42:00,
2013-02-08 00:52:00,39.0,37.0,29.83,WNW,292,3.0,9.0,91,0.01,,,0.14,,2013-02-08 05:52:00,
2013-02-08 01:01:00,38.0,36.0,29.84,WNW,294,4.0,11.0,91,0.01,,,0.14,,2013-02-08 06:01:00,
2013-02-08 01:11:00,38.0,36.0,29.84,WNW,294,4.0,11.0,91,0.01,,,0.14,,2013-02-08 06:11:00,
2013-02-08 01:21:00,37.0,35.0,29.84,West,266,4.0,9.0,91,0.01,,,0.14,,2013-02-08 06:21:00,
2013-02-08 01:32:00,37.0,35.0,29.85,West,271,2.0,13.0,91,0.00,,,0.14,,2013-02-08 06:32:00,
2013-02-08 01:42:00,37.0,35.0,29.85,West,271,2.0,13.0,91,0.00,,,0.14,,2013-02-08 06:42:00,
2013-02-08 01:51:00,36.0,33.0,29.85,NW,321,5.0,13.0,90,0.00,,,0.14,,2013-02-08 06:51:00,
2013-02-08 02:01:00,36.0,33.0,29.85,NW,322,4.0,9.0,90,0.00,,,0.14,,2013-02-08 07:01:00,
2013-02-08 02:11:00,36.0,33.0,29.85,NW,322,4.0,9.0,90,0.00,,,0.14,,2013-02-08 07:11:00,
2013-02-08 02:21:00,35.0,32.0,29.86,West,263,6.0,13.0,90,0.00,,,0.14,,2013-02-08 07:21:00,
2013-02-08 02:32:00,34.0,31.0,29.87,WNW,299,6.0,15.0,90,0.00,,,0.14,,2013-02-08 07:32:00,
2013-02-08 02:42:00,34.0,32.0,29.88,WNW,301,6.0,14.0,91,0.00,,,0.14,,2013-02-08 07:42:00,
2013-02-08 02:51:00,34.0,32.0,29.88,WNW,301,6.0,14.0,91,0.00,,,0.14,,2013-02-08 07:51:00,
2013-02-08 03:01:00,34.0,32.0,29.88,NW,306,3.0,10.0,91,0.00,,,0.14,,2013-02-08 08:01:00,
2013-02-08 03:11:00,34.0,32.0,29.88,NW,306,3.0,10.0,91,0.00,,,0.14,,2013-02-08 08:11:00,
2013-02-08 03:21:00,34.0,32.0,29.88,NNW,332,4.0,12.0,91,0.00,,,0.14,,2013-02-08 08:21:00,
2013-02-08 03:32:00,34.0,32.0,29.89,WNW,296,6.0,12.0,91,0.00,,,0.14,,2013-02-08 08:32:00,
2013-02-08 03:42:00,34.0,32.0,29.89,WNW,296,6.0,12.0,91,0.00,,,0.14,,2013-02-08 08:42:00,
2013-02-08 03:52:00,34.0,32.0,29.90,NW,313,5.0,10.0,91,0.00,,,0.14,,2013-02-08 08:52:00,
2013-02-08 04:03:00,33.0,31.0,29.90,NW,305,6.0,13.0,91,0.00,,,0.14,,2013-02-08 09:03:00,
2013-02-08 04:11:00,33.0,31.0,29.90,NW,305,6.0,13.0,91,0.00,,,0.14,,2013-02-08 09:11:00,
2013-02-08 04:21:00,33.0,30.0,29.91,NNW,333,6.0,13.0,89,0.00,,,0.14,,2013-02-08 09:21:00,
2013-02-08 04:32:00,33.0,30.0,29.92,NW,308,6.0,12.0,89,0.00,,,0.14,,2013-02-08 09:32:00,
2013-02-08 04:42:00,33.0,30.0,29.92,NW,308,6.0,12.0,89,0.00,,,0.14,,2013-02-08 09:42:00,
2013-02-08 04:52:00,33.0,30.0,29.92,WNW,302,4.0,11.0,88,0.00,,,0.14,,2013-02-08 09:52:00,
2013-02-08 05:01:00,33.0,30.0,29.93,NNW,334,6.0,13.0,87,0.00,,,0.14,,2013-02-08 10:01:00,
2013-02-08 05:11:00,33.0,30.0,29.93,NNW,334,6.0,13.0,87,0.00,,,0.14,,2013-02-08 10:11:00,
2013-02-08 05:22:00,33.0,30.0,29.94,NNW,332,6.0,12.0,87,0.00,,,0.14,,2013-02-08 10:22:00,
2013-02-08 05:32:00,33.0,30.0,29.94,WNW,293,6.0,11.0,87,0.00,,,0.14,,2013-02-08 10:32:00,
2013-02-08 05:42:00,33.0,30.0,29.94,WNW,293,6.0,11.0,87,0.00,,,0.14,,2013-02-08 10:42:00,
2013-02-08 05:51:00,33.0,29.0,29.96,WNW,301,5.0,13.0,86,0.00,,,0.14,,2013-02-08 10:51:00,
2013-02-08 06:01:00,33.0,29.0,29.96,West,279,5.0,13.0,86,0.00,,,0.14,,2013-02-08 11:01:00,
2013-02-08 06:11:00,33.0,29.0,29.96,West,279,5.0,13.0,86,0.00,,,0.14,,2013-02-08 11:11:00,
2013-02-08 06:21:00,33.0,29.0,29.96,NW,321,8.0,18.0,86,0.00,,,0.14,,2013-02-08 11:21:00,
2013-02-08 06:32:00,33.0,29.0,29.97,NNW,341,6.0,14.0,86,0.00,,,0.14,,2013-02-08 11:32:00,
2013-02-08 06:42:00,33.0,29.0,29.97,NNW,341,6.0,14.0,86,0.00,,,0.14,,2013-02-08 11:42:00,
2013-02-08 06:52:00,32.0,29.0,29.98,West,281,5.0,11.0,87,0.00,,,0.14,,2013-02-08 11:52:00,
2013-02-08 07:02:00,32.0,28.0,29.98,West,275,7.0,16.0,86,0.00,,,0.14,,2013-02-08 12:02:00,
2013-02-08 07:11:00,32.0,28.0,29.98,West,275,7.0,16.0,86,0.00,,,0.14,,2013-02-08 12:11:00,
2013-02-08 07:22:00,32.0,28.0,29.99,NW,312,7.0,15.0,86,0.00,,,0.14,,2013-02-08 12:22:00,
2013-02-08 07:33:00,32.0,29.0,30.01,NW,317,6.0,17.0,87,0.00,,,0.14,,2013-02-08 12:33:00,
2013-02-08 07:42:00,32.0,29.0,30.01,NW,317,6.0,17.0,87,0.00,,,0.14,,2013-02-08 12:42:00,
2013-02-08 07:52:00,32.0,29.0,30.01,NW,326,4.0,10.0,87,0.00,,,0.14,,2013-02-08 12:52:00,
2013-02-08 08:01:00,31.0,28.0,30.03,West,273,4.0,14.0,87,0.00,,,0.14,,2013-02-08 13:01:00,
2013-02-08 08:11:00,31.0,28.0,30.03,West,273,4.0,14.0,87,0.00,,,0.14,,2013-02-08 13:11:00,
2013-02-08 08:22:00,32.0,29.0,30.03,WNW,291,5.0,11.0,87,0.00,,,0.14,,2013-02-08 13:22:00,
2013-02-08 08:32:00,32.0,28.0,30.04,WNW,291,5.0,16.0,85,0.00,,,0.14,,2013-02-08 13:32:00,
2013-02-08 08:42:00,32.0,28.0,30.04,WNW,291,5.0,16.0,85,0.00,,,0.14,,2013-02-08 13:42:00,
2013-02-08 08:51:00,32.0,28.0,30.05,West,277,7.0,12.0,85,0.00,,,0.14,,2013-02-08 13:51:00,
2013-02-08 09:02:00,32.0,28.0,30.06,West,279,7.0,14.0,85,0.00,,,0.14,,2013-02-08 14:02:00,
2013-02-08 09:11:00,32.0,28.0,30.06,West,279,7.0,14.0,85,0.00,,,0.14,,2013-02-08 14:11:00,
2013-02-08 09:22:00,32.0,28.0,30.07,NW,306,9.0,15.0,84,0.00,,,0.14,,2013-02-08 14:22:00,
2013-02-08 09:32:00,32.0,28.0,30.07,NW,306,9.0,15.0,84,0.00,,,0.14,,2013-02-08 14:32:00,
2013-02-08 09:42:00,32.0,28.0,30.07,NW,306,9.0,15.0,84,0.00,,,0.14,,2013-02-08 14:42:00,
2013-02-08 09:52:00,31.0,27.0,30.09,West,261,5.0,14.0,85,0.00,,,0.14,,2013-02-08 14:52:00,
2013-02-08 10:02:00,31.0,27.0,30.10,WNW,292,6.0,12.0,85,0.00,,,0.14,,2013-02-08 15:02:00,
2013-02-08 10:11:00,31.0,27.0,30.10,WNW,292,6.0,12.0,85,0.00,,,0.14,,2013-02-08 15:11:00,
2013-02-08 10:22:00,31.0,27.0,30.10,WNW,292,6.0,12.0,85,0.00,,,0.14,,2013-02-08 15:22:00,
2013-02-08 10:32:00,31.0,27.0,30.12,NW,319,6.0,10.0,85,0.00,,,0.14,,2013-02-08 15:32:00,
2013-02-08 10:42:00,31.0,27.0,30.12,NW,319,6.0,10.0,85,0.00,,,0.14,,2013-02-08 15:42:00,
2013-02-08 10:52:00,31.0,27.0,30.14,West,281,5.0,12.0,86,0.00,,,0.14,,2013-02-08 15:52:00,
2013-02-08 11:01:00,31.0,27.0,30.14,West,276,7.0,13.0,85,0.00,,,0.14,,2013-02-08 16:01:00,
2013-02-08 11:11:00,31.0,27.0,30.14,West,276,7.0,13.0,85,0.00,,,0.14,,2013-02-08 16:11:00,
2013-02-08 11:22:00,31.0,27.0,30.14,NW,306,4.0,9.0,86,0.00,,,0.14,,2013-02-08 16:22:00,
2013-02-08 11:32:00,31.0,27.0,30.15,West,280,5.0,10.0,85,0.00,,,0.14,,2013-02-08 16:32:00,
2013-02-08 11:42:00,31.0,27.0,30.15,West,280,5.0,10.0,85,0.00,,,0.14,,2013-02-08 16:42:00,
2013-02-08 11:52:00,32.0,28.0,30.16,WNW,300,3.0,10.0,85,0.00,,,0.14,,2013-02-08 16:52:00,
2013-02-08 12:03:00,32.0,28.0,30.17,NW,325,6.0,12.0,84,0.00,,,0.14,,2013-02-08 17:03:00,
2013-02-08 12:12:00,32.0,28.0,30.17,NW,325,6.0,12.0,84,0.00,,,0.14,,2013-02-08 17:12:00,
2013-02-08 12:23:00,33.0,28.0,30.17,NNW,327,5.0,15.0,83,0.00,,,0.14,,2013-02-08 17:23:00,
2013-02-08 12:32:00,33.0,28.0,30.17,NNW,328,8.0,14.0,82,0.00,,,0.14,,2013-02-08 17:32:00,
2013-02-08 12:42:00,33.0,28.0,30.17,NNW,328,8.0,14.0,82,0.00,,,0.14,,2013-02-08 17:42:00,
2013-02-08 12:52:00,33.0,28.0,30.17,NW,320,7.0,13.0,81,0.00,,,0.14,,2013-02-08 17:52:00,
2013-02-08 13:02:00,33.0,28.0,30.17,WNW,289,5.0,14.0,82,0.00,,,0.14,,2013-02-08 18:02:00,
2013-02-08 13:12:00,33.0,28.0,30.17,WNW,289,5.0,14.0,82,0.00,,,0.14,,2013-02-08 18:12:00,
2013-02-08 13:24:00,32.0,27.0,30.17,West,277,4.0,10.0,83,0.00,,,0.14,,2013-02-08 18:24:00,
2013-02-08 13:34:00,32.0,28.0,30.17,NW,309,5.0,10.0,84,0.00,,,0.14,,2013-02-08 18:34:00,
2013-02-08 13:43:00,32.0,28.0,30.17,NW,309,5.0,10.0,84,0.00,,,0.14,,2013-02-08 18:43:00,
2013-02-08 13:52:00,33.0,28.0,30.17,WNW,285,5.0,12.0,83,0.00,,,0.14,,2013-02-08 18:52:00,
2013-02-08 14:02:00,33.0,28.0,30.17,NNW,337,4.0,9.0,83,0.00,,,0.14,,2013-02-08 19:02:00,
2013-02-08 14:11:00,33.0,28.0,30.17,NNW,337,4.0,9.0,83,0.00,,,0.14,,2013-02-08 19:11:00,
2013-02-08 14:22:00,33.0,28.0,30.18,WNW,285,3.0,9.0,83,0.00,,,0.14,,2013-02-08 19:22:00,
2013-02-08 14:32:00,33.0,28.0,30.18,NNW,332,5.0,11.0,83,0.00,,,0.14,,2013-02-08 19:32:00,
2013-02-08 14:42:00,33.0,28.0,30.18,NNW,332,5.0,11.0,83,0.00,,,0.14,,2013-02-08 19:42:00,
2013-02-08 14:52:00,33.0,28.0,30.18,NW,321,5.0,14.0,83,0.00,,,0.14,,2013-02-08 19:52:00,
2013-02-08 15:02:00,34.0,29.0,30.19,West,281,5.0,11.0,82,0.00,,,0.14,,2013-02-08 20:02:00,
2013-02-08 15:11:00,34.0,29.0,30.19,West,281,5.0,11.0,82,0.00,,,0.14,,2013-02-08 20:11:00,
2013-02-08 15:22:00,34.0,29.0,30.19,WNW,296,3.0,10.0,81,0.00,,,0.14,,2013-02-08 20:22:00,
2013-02-08 15:32:00,35.0,29.0,30.20,NW,319,3.0,10.0,77,0.00,,,0.14,,2013-02-08 20:32:00,
2013-02-08 15:42:00,35.0,29.0,30.20,NW,319,3.0,10.0,77,0.00,,,0.14,,2013-02-08 20:42:00,
2013-02-08 15:52:00,35.0,28.0,30.20,North,360,5.0,12.0,75,0.00,,,0.14,,2013-02-08 20:52:00,
2013-02-08 16:02:00,35.0,28.0,30.21,North,360,5.0,10.0,74,0.00,,,0.14,,2013-02-08 21:02:00,
2013-02-08 16:11:00,35.0,28.0,30.21,North,360,5.0,10.0,74,0.00,,,0.14,,2013-02-08 21:11:00,
2013-02-08 16:22:00,34.0,27.0,30.22,West,281,4.0,10.0,76,0.00,,,0.14,,2013-02-08 21:22:00,
2013-02-08 16:32:00,35.0,28.0,30.22,NNW,345,3.0,10.0,74,0.00,,,0.14,,2013-02-08 21:32:00,
2013-02-08 16:42:00,35.0,28.0,30.22,NNW,345,3.0,10.0,74,0.00,,,0.14,,2013-02-08 21:42:00,
2013-02-08 16:52:00,34.0,27.0,30.23,WNW,290,5.0,11.0,75,0.00,,,0.14,,2013-02-08 21:52:00,
2013-02-08 17:02:00,34.0,27.0,30.23,NNW,329,4.0,8.0,74,0.00,,,0.14,,2013-02-08 22:02:00,
2013-02-08 17:11:00,34.0,27.0,30.23,NNW,329,4.0,8.0,74,0.00,,,0.14,,2013-02-08 22:11:00,
2013-02-08 17:22:00,34.0,27.0,30.24,NNE,25,3.0,7.0,74,0.00,,,0.14,,2013-02-08 22:22:00,
2013-02-08 17:32:00,34.0,26.0,30.25,North,5,3.0,10.0,73,0.00,,,0.14,,2013-02-08 22:32:00,
2013-02-08 17:42:00,34.0,26.0,30.25,North,5,3.0,10.0,73,0.00,,,0.14,,2013-02-08 22:42:00,
2013-02-08 17:52:00,34.0,27.0,30.26,NNW,340,3.0,6.0,74,0.00,,,0.14,,2013-02-08 22:52:00,
2013-02-08 18:01:00,34.0,27.0,30.26,NW,324,2.0,7.0,74,0.00,,,0.14,,2013-02-08 23:01:00,
2013-02-08 18:11:00,34.0,27.0,30.26,NW,324,2.0,7.0,74,0.00,,,0.14,,2013-02-08 23:11:00,
2013-02-08 18:21:00,33.0,25.0,30.27,NNW,333,4.0,10.0,73,0.00,,,0.14,,2013-02-08 23:21:00,
2013-02-08 18:32:00,33.0,26.0,30.28,NW,320,3.0,7.0,74,0.00,,,0.14,,2013-02-08 23:32:00,
2013-02-08 18:42:00,33.0,26.0,30.28,NW,320,3.0,7.0,74,0.00,,,0.14,,2013-02-08 23:42:00,
2013-02-08 18:52:00,33.0,25.0,30.29,North,5,3.0,9.0,73,0.00,,,0.14,,2013-02-08 23:52:00,
2013-02-08 19:02:00,33.0,25.0,30.29,North,5,3.0,9.0,73,0.00,,,0.14,,2013-02-09 00:02:00,
2013-02-08 19:11:00,33.0,25.0,30.29,North,5,3.0,9.0,73,0.00,,,0.14,,2013-02-09 00:11:00,
2013-02-08 19:21:00,32.0,25.0,30.31,WNW,289,2.0,8.0,75,0.00,,,0.14,,2013-02-09 00:21:00,
2013-02-08 19:32:00,31.0,24.0,30.31,NW,319,3.0,8.0,76,0.00,,,0.14,,2013-02-09 00:32:00,
2013-02-08 19:42:00,31.0,24.0,30.31,NW,319,3.0,8.0,76,0.00,,,0.14,,2013-02-09 00:42:00,
2013-02-08 19:52:00,31.0,25.0,30.32,NW,309,2.0,7.0,77,0.00,,,0.14,,2013-02-09 00:52:00,
2013-02-08 20:01:00,30.0,24.0,30.32,NNW,340,3.0,6.0,77,0.00,,,0.14,,2013-02-09 01:01:00,
2013-02-08 20:11:00,30.0,24.0,30.32,NNW,340,3.0,6.0,77,0.00,,,0.14,,2013-02-09 01:11:00,
2013-02-08 20:22:00,30.0,24.0,30.32,NW,325,3.0,7.0,77,0.00,,,0.14,,2013-02-09 01:22:00,
2013-02-08 20:32:00,30.0,24.0,30.33,NNW,346,2.0,6.0,78,0.00,,,0.14,,2013-02-09 01:32:00,
2013-02-08 20:41:00,30.0,24.0,30.33,NNW,346,2.0,6.0,78,0.00,,,0.14,,2013-02-09 01:41:00,
2013-02-08 20:52:00,30.0,24.0,30.33,North,355,1.0,6.0,77,0.00,,,0.14,,2013-02-09 01:52:00,
2013-02-08 21:01:00,29.0,23.0,30.34,NNW,329,1.0,5.0,78,0.00,,,0.14,,2013-02-09 02:01:00,
2013-02-08 21:11:00,29.0,23.0,30.34,NNW,329,1.0,5.0,78,0.00,,,0.14,,2013-02-09 02:11:00,
2013-02-08 21:21:00,29.0,23.0,30.34,NNW,329,1.0,5.0,78,0.00,,,0.14,,2013-02-09 02:21:00,
2013-02-08 21:32:00,29.0,23.0,30.35,NW,321,2.0,5.0,77,0.00,,,0.14,,2013-02-09 02:32:00,
2013-02-08 21:42:00,29.0,23.0,30.35,NW,321,2.0,5.0,77,0.00,,,0.14,,2013-02-09 02:42:00,
2013-02-08 21:53:00,30.0,23.0,30.35,NE,36,1.0,4.0,76,0.00,,,0.14,,2013-02-09 02:53:00,
2013-02-08 22:02:00,30.0,23.0,30.35,NE,36,1.0,4.0,76,0.00,,,0.14,,2013-02-09 03:02:00,
2013-02-08 22:11:00,30.0,23.0,30.35,NE,36,1.0,4.0,76,0.00,,,0.14,,2013-02-09 03:11:00,
2013-02-08 22:21:00,30.0,22.0,30.35,NE,42,1.0,7.0,73,0.00,,,0.14,,2013-02-09 03:21:00,
2013-02-08 22:32:00,30.0,22.0,30.35,NNE,15,2.0,6.0,73,0.00,,,0.09,,2013-02-09 03:32:00,
2013-02-08 22:42:00,30.0,22.0,30.35,NNE,15,2.0,6.0,73,0.00,,,0.09,,2013-02-09 03:42:00,
2013-02-08 22:53:00,30.0,22.0,30.35,North,355,1.0,4.0,73,0.00,,,0.09,,2013-02-09 03:53:00,
2013-02-08 23:02:00,29.0,21.0,30.35,NE,44,0.0,6.0,73,0.00,,,0.09,,2013-02-09 04:02:00,
2013-02-08 23:12:00,29.0,21.0,30.35,NE,44,0.0,6.0,73,0.00,,,0.09,,2013-02-09 04:12:00,
2013-02-08 23:23:00,29.0,22.0,30.35,NW,323,0.0,7.0,74,0.00,,,0.09,,2013-02-09 04:23:00,
2013-02-08 23:32:00,29.0,22.0,30.36,NNE,26,1.0,3.0,74,0.00,,,0.03,,2013-02-09 04:32:00,
2013-02-08 23:42:00,29.0,22.0,30.36,NNE,26,1.0,3.0,74,0.00,,,0.03,,2013-02-09 04:42:00,
2013-02-08 23:52:00,28.0,21.0,30.36,NW,309,1.0,3.0,75,0.00,,,0.03,,2013-02-09 04:52:00,